Location: Aghk�ilisa
(40.0189°N, 45.0097°E)
Time: 11:57:09
(UTC+00:00)

Cosmos 2058 - Pass Details

Date: 21 October 2019
Orbit: 562 x 584 km, 82.5° (Epoch: 19 November)

Event Time Altitude Azimuth Distance (km) Brightness Sun altitude
Rises 15:53:53 0° 355° (N) 2,817 6.5 -20.1°
Reaches altitude 10° 15:56:07 10° 358° (N) 1,911 5.6 -20.5°
Maximum altitude 16:00:18 66° 81° (E) 639 2.8 -21.3°
Enters shadow 16:00:23 66° 89° (E) 640 2.8 -21.4°
